This is the latest recevied weather packets stored in our database for station/object KC3QLX. If no packets are shown the sender has not sent any weather packets the latest 10 day(s).
| Time | Temp. | Humidity | Pressure | Rain* | Wind** | Luminosity | Snow |
|---|---|---|---|---|---|---|---|
| 1778028079 | 23.33° C | 47% | 1007.7 hPa | 0 mm | - | 0 W/m² | - |
| 1778027775 | 23.33° C | 47% | 1007.9 hPa | 0 mm | - | 0 W/m² | - |
| 1778027471 | 23.33° C | 47% | 1007.9 hPa | 0 mm | - | 0 W/m² | - |
| 1778027167 | 23.33° C | 47% | 1007.8 hPa | 0 mm | - | 0 W/m² | - |
| 1778026863 | 23.89° C | 46% | 1007.9 hPa | 0 mm | - | 0 W/m² | - |
| 1778026559 | 23.33° C | 47% | 1007.8 hPa | 0 mm | - | 0 W/m² | - |
| 1778026257 | 23.89° C | 47% | 1007.8 hPa | 0 mm | - | 0 W/m² | - |
| 1778025954 | 23.89° C | 47% | 1007.5 hPa | 0 mm | - | 0 W/m² | - |
| 1778025651 | 23.89° C | 46% | 1007.5 hPa | 0 mm | - | 1 W/m² | - |
| 1778025349 | 23.89° C | 46% | 1007.4 hPa | 0 mm | - | 3 W/m² | - |
| 1778025046 | 23.89° C | 46% | 1007.5 hPa | 0 mm | - | 5 W/m² | - |
| 1778024743 | 23.89° C | 45% | 1007.4 hPa | 0 mm | - | 7 W/m² | - |
| 1778024439 | 23.89° C | 45% | 1007.4 hPa | 0 mm | - | 11 W/m² | - |
| 1778024137 | 24.44° C | 45% | 1007.4 hPa | 0 mm | - | 13 W/m² | - |
| 1778023835 | 24.44° C | 44% | 1007.2 hPa | 0 mm | - | 15 W/m² | - |
| 1778023532 | 25° C | 44% | 1007.1 hPa | 0 mm | - | 19 W/m² | - |
| 1778023229 | 25° C | 43% | 1007.1 hPa | 0 mm | - | 25 W/m² | - |
| 1778022926 | 25° C | 42% | 1007.1 hPa | 0 mm | - | 35 W/m² | - |
| 1778022625 | 25.56° C | 40% | 1007.1 hPa | 0 mm | - | 45 W/m² | - |
| 1778022322 | 25.56° C | 39% | 1007.3 hPa | 0 mm | - | 51 W/m² | - |
| 1778022018 | 25.56° C | 38% | 1007.1 hPa | 0 mm | - | 52 W/m² | - |
| 1778021715 | 25.56° C | 39% | 1006.9 hPa | 0 mm | - | 54 W/m² | - |
| 1778021411 | 25.56° C | 40% | 1007.1 hPa | 0 mm | - | 57 W/m² | - |
| 1778021109 | 25.56° C | 38% | 1007.1 hPa | 0 mm | - | 60 W/m² | - |
| 1778020806 | 25.56° C | 38% | 1007 hPa | 0 mm | - | 65 W/m² | - |
* Rain latest hour (hover to see other rain measurements)
** Current wind speed in m/s (hover to see current wind gust speed)